Location: Saint-Palais-sur-Mer
(45.6429°N, 1.0859°W)
Time: 23:09:34
(UTC+01:00)

S-56A Canister/Altair - Pass Details

Date: 14 February 2026
Orbit: 633 x 2484 km, 38.9° (Epoch: 11 March)

Event Time Altitude Azimuth Distance (km) Brightness Sun altitude
Exits shadow 04:09:47 51° 137° (SE) 2,128 9.6 -41.4°
Drops below altitude 10° 04:19:35 10° 105° (ESE) 4,685 12.0 -39.8°
Sets 04:23:49 0° 102° (ESE) 5,885 12.7 -39.2°
